Mountain Home, AR

3:33 AM CDT on September 22, 2019 (GMT -0500)
Baxter County Regional

Weather History for KBPK - August, 2019

Change the Weather History Date:

Thursday, August 22, 2019

  Actual Average (KFLP) Record (KFLP)
Temperature  
Mean Temperature 76 °F -  
Max Temperature 84 °F 88 °F 100 °F (2003)
Min Temperature 69 °F 65 °F 57 °F (2016)
Cooling Degree Days 10    
Growing Degree Days 26 (Base 50)    
Moisture  
Dew Point 71 °F    
Average Humidity 91    
Maximum Humidity 100    
Minimum Humidity 69    
Precipitation  
Precipitation 0.03 in - - ()
Sea Level Pressure  
Sea Level Pressure 29.97 in    
Wind  
Wind Speed 3 mph (East)    
Max Wind Speed 8 mph    
Max Gust Speed -    
Visibility 10 miles    
Events Rain , Thunderstorm    
Averages and records for this station are not official NWS values.
T = Trace of Precipitation, MM = Missing Value Source: NWS Daily Summary

Daily Weather History Graph

Daily Weather History Graph

Search for Another Location

Airport or City:

Astronomy

Aug. 22, 2019 Rise Set
Actual Time 6:33 AM CDT 7:51 PM CDT
Civil Twilight 6:06 AM CDT 8:18 PM CDT
Nautical Twilight 5:34 AM CDT 8:50 PM CDT
Astronomical Twilight 5:00 AM CDT 9:24 PM CDT
Moon 11:53 PM CDT 12:58 PM CDT
Length of Visible Light 14h 12m
Length of Day
13h 18m
Waning Gibbous, 59% of the Moon is Illuminated
Aug 22
Waning Gibbous
Aug 23
Last Quarter
Aug 30
New
Sep 5
First Quarter
Sep 13
Full

Hourly Weather History & Observations

Time (CDT) Temp. Heat Index Dew Point Humidity Pressure Visibility Wind Dir Wind Speed Gust Speed Precip Events Conditions
12:53 AM 69.1 °F - 69.1 °F 100% 29.97 in 10.0 mi Calm Calm - N/A   Clear
1:53 AM 69.1 °F - 69.1 °F 100% 29.96 in 10.0 mi ENE 4.6 mph - N/A   Clear
2:53 AM 70.0 °F - 69.1 °F 97% 29.97 in 10.0 mi Variable 3.5 mph - N/A   Overcast
3:53 AM 70.0 °F - 69.1 °F 97% 29.97 in 10.0 mi ENE 4.6 mph - N/A   Mostly Cloudy
4:53 AM 69.1 °F - 69.1 °F 100% 29.96 in 10.0 mi ESE 5.8 mph - N/A   Clear
5:53 AM 69.1 °F - 69.1 °F 100% 29.95 in 10.0 mi South 4.6 mph - N/A   Mostly Cloudy
6:53 AM 69.1 °F - 69.1 °F 100% 29.96 in 9.0 mi Calm Calm - N/A   Mostly Cloudy
7:10 AM 69.1 °F - 69.1 °F 100% 30.00 in 9.0 mi NNW 4.6 mph - N/A   Overcast
7:20 AM 69.1 °F - 69.1 °F 100% 30.01 in 10.0 mi Variable 3.5 mph - N/A   Overcast
7:33 AM 70.0 °F - 70.0 °F 100% 30.02 in 10.0 mi Calm Calm - N/A Thunderstorm Overcast
7:41 AM 70.0 °F - 70.0 °F 100% 30.02 in 10.0 mi Calm Calm - N/A Thunderstorm Overcast
7:50 AM 69.8 °F - 69.8 °F 100% 30.03 in 10.0 mi NNW 3.5 mph - N/A   Overcast
7:53 AM 70.0 °F - 70.0 °F 100% 30.01 in 10.0 mi Variable 3.5 mph - N/A Thunderstorm Thunderstorm
8:12 AM 70.0 °F - 70.0 °F 100% 30.03 in 10.0 mi Variable 3.5 mph - N/A Thunderstorm Overcast
8:30 AM 70.0 °F - 70.0 °F 100% 30.03 in 10.0 mi Variable 3.5 mph - N/A Thunderstorm Thunderstorm
8:53 AM 71.1 °F - 69.1 °F 93% 30.01 in 10.0 mi Variable 3.5 mph - N/A Thunderstorm Overcast
9:04 AM 71.1 °F - 69.1 °F 93% 30.03 in 10.0 mi Variable 3.5 mph - N/A   Overcast
9:53 AM 73.0 °F - 71.1 °F 93% 30.00 in 10.0 mi Calm Calm - 0.01 in   Scattered Clouds
10:53 AM 79.0 °F - 72.0 °F 79% 30.01 in 10.0 mi Variable 3.5 mph - N/A   Partly Cloudy
11:53 AM 75.9 °F - 72.0 °F 87% 30.00 in 10.0 mi Variable 3.5 mph - 0.00 in   Partly Cloudy
12:53 PM 79.0 °F - 70.0 °F 74% 29.95 in 10.0 mi ESE 8.1 mph - N/A   Clear
1:53 PM 81.0 °F 85.8 °F 73.0 °F 77% 29.93 in 10.0 mi ENE 3.5 mph - N/A   Partly Cloudy
2:22 PM 81.0 °F 85.8 °F 73.0 °F 77% 29.97 in 10.0 mi Variable 3.5 mph - N/A   Mostly Cloudy
2:32 PM 81.0 °F 85.8 °F 73.0 °F 77% 29.97 in 10.0 mi North 3.5 mph - N/A   Scattered Clouds
4:53 PM 82.0 °F 86.3 °F 71.1 °F 69% 29.91 in 10.0 mi East 5.8 mph - N/A   Partly Cloudy
5:53 PM 79.0 °F - 71.1 °F 77% 29.91 in 10.0 mi Calm Calm - N/A   Overcast
6:53 PM 77.0 °F - 71.1 °F 82% 29.91 in 10.0 mi East 4.6 mph - N/A   Mostly Cloudy
7:53 PM 77.0 °F - 71.1 °F 82% 29.92 in 10.0 mi ESE 4.6 mph - N/A   Overcast
8:53 PM 77.0 °F - 72.0 °F 84% 29.91 in 10.0 mi ESE 6.9 mph - N/A   Mostly Cloudy
9:53 PM 75.0 °F - 72.0 °F 90% 29.96 in 10.0 mi SSW 3.5 mph - 0.01 in Rain Light Rain
10:53 PM 73.9 °F - 73.0 °F 97% 29.95 in 10.0 mi SSE 4.6 mph - 0.00 in   Clear
11:53 PM 73.9 °F - 73.0 °F 97% 29.96 in 10.0 mi SSE 3.5 mph - 0.01 in Rain Light Rain